Portada
METAR-TAF:

METAR-TAF

Aeroports :

Belo Horizonte, Minas Gerais, Brasil

latitud: 19-51S, longitud: 043-57W, altitud: 785 m

Observació

L'informe es va fer fa 1 hora i 9 minuts, a les 04:00 UTC
Vent 5 kt del Est
Temperatura 15°C
Humitat 77%
Pressió 1026 hPa
Visibilitat 10 km o més
sense núvols per sota de 1500 mi sense presència de cumulonimbus.

METAR: SBBH 090400Z 10005KT CAVOK 15/11 Q1026

Hora: 02:09 (05:09 UTC)


TAF: manca

Observacions i pronòstics meteorològics de més de 4000 aeroports (METAR i TAF).

Les estacions disponibles són els punts grocs i vermells al mapa.

Posi el ratolí al punt desitjat per veure el nom de l'estació.

Feu clic per veure les observacions i els pronòstics meteorològics.

Per canviar el mapa: feu clic els botons verds amb una creu de color negre per apropar; al botó verd amb un guió per allunyar la imatge; o en les fletxes verdes per a mapes adjacents.


METAR-TAF: